Location: Ellerstadt
(49.4644°N, 8.2615°E)
Time: 23:06:21
(UTC+00:00)

Cosmos 1992 Rocket - Pass Details

Date: 03 March 2021
Orbit: 759 x 765 km, 74.0° (Epoch: 12 April)

Event Time Altitude Azimuth Distance (km) Brightness Sun altitude
Rises 17:47:59 0° 179° (S) 3,217 7.3 -6.5°
Reaches altitude 10° 17:50:27 10° 172° (S) 2,295 6.4 -6.9°
Maximum altitude 17:55:17 40° 104° (ESE) 1,119 4.4 -7.6°
Drops below altitude 10° 18:00:09 10° 36° (NE) 2,309 6.1 -8.4°
Sets 18:02:38 0° 29° (NNE) 3,238 7.0 -8.8°
